This demonstration page uses our WeatherBlox Daily Observations layout. Learn more.

Left ArrowRight Arrow

41.12389, -100.76542

Hourly Observations for July 7, 2018

Temp ( °F °C ) Dew Point ( °F °C ) Humidity (%) Winds ( mph kmh ) Pressure ( in mb ) Visibility ( mi km ) Precip ( " mm )
12:53 am 00:53 Clear 72 22.2 71 21.7 97 97 SSE 6 9 30.21 1023 10 16 0.00 0.00
1:53 am 01:53 Clear 72 22.2 70 21.1 94 94 SSE 7 11 30.19 1023 10 16 0.00 0.00
2:53 am 02:53 Clear 69 20.6 69 20.6 100 100 SE 6 9 30.18 1022 10 16 0.00 0.00
3:53 am 03:53 Clear 70 21.1 69 20.6 97 97 SE 7 11 30.17 1022 10 16 0.00 0.00
4:53 am 04:53 Clear 70 21.1 68 20 93 93 S 8 13 30.16 1021 10 16 0.00 0.00
5:53 am 05:53 Clear 70 21.1 68 20 93 93 S 7 11 30.15 1021 10 16 0.00 0.00
6:53 am 06:53 Sunny 70 21.1 68 20 93 93 S 7 11 30.15 1021 10 16 0.00 0.00
7:53 am 07:53 Sunny 72 22.2 69 20.6 91 91 S 7 11 30.15 1021 10 16 0.00 0.00
8:53 am 08:53 Sunny 76 24.4 69 20.6 79 79 SSW 9 15 30.15 1021 10 16 0.00 0.00
9:53 am 09:53 Sunny 79 26.1 70 21.1 74 74 SSW 12 19 30.15 1021 10 16 0.00 0.00
10:53 am 10:53 Sunny 83 28.3 70 21.1 65 65 SSW 13 20 30.14 1021 10 16 0.00 0.00
11:53 am 11:53 Sunny 86 30 70 21.1 59 59 S 17 28 30.11 1020 10 16 0.00 0.00
12:53 pm 12:53 Sunny 88 31.1 70 21.1 55 55 S 12 19 30.10 1019 10 16 0.00 0.00
1:53 pm 13:53 Sunny 90 32.2 70 21.1 52 52 S 17 28 30.08 1019 10 16 0.00 0.00
2:53 pm 14:53 Sunny 91 32.8 68 20 47 47 SSW 14 22 30.06 1018 10 16 0.00 0.00
3:53 pm 15:53 Mostly Sunny 92 33.3 68 20 46 46 S 18 30 30.05 1018 10 16 0.00 0.00
4:53 pm 16:53 Sunny 92 33.3 68 20 46 46 SSW 16 26 30.03 1017 10 16 0.00 0.00
5:53 pm 17:53 Sunny 91 32.8 69 20.6 49 49 S 13 20 30.01 1016 10 16 0.00 0.00
6:53 pm 18:53 Sunny 89 31.7 69 20.6 52 52 S 18 30 30.01 1016 10 16 0.00 0.00
7:53 pm 19:53 Sunny 87 30.6 69 20.6 55 55 S 9 15 30.01 1016 10 16 0.00 0.00
8:53 pm 20:53 Sunny 83 28.3 68 20 61 61 SSE 9 15 30.01 1016 10 16 0.00 0.00
9:53 pm 21:53 Clear 80 26.7 68 20 67 67 SSE 8 13 30.02 1017 10 16 0.00 0.00
10:53 pm 22:53 Clear 78 25.6 68 20 71 71 SSE 9 15 30.05 1018 10 16 0.00 0.00
11:53 pm 23:53 Clear 79 26.1 68 20 69 69 S 12 19 30.04 1017 10 16 0.00 0.00

Powered by AerisWeather